Location: Bruderhein
(53.8035°N, 112.9265°W)
Time: 05:35:24
(UTC+00:00)

First-Move - Pass Details

Date: 30 April 2024
Orbit: 538 x 600 km, 97.7° (Epoch: 19 May)

Event Time Altitude Azimuth Distance (km) Brightness Sun altitude
Rises 10:38:04 0° 18° (NNE) 2,878 ? -10.3°
Reaches altitude 10° 10:40:21 10° 26° (NNE) 1,970 ? -10.0°
Maximum altitude 10:44:26 42° 98° (E) 866 ? -9.6°
Drops below altitude 10° 10:48:29 10° 170° (S) 1,945 ? -9.1°
Sets 10:50:43 0° 177° (S) 2,837 ? -8.9°
